• In Uzbekistan
  • List of Countries
  • For 7 days
  • Water Temperature
  • Satellite Maps
  • Weather Map
  • Weather Widgets
  • user-avatar
    Login

    Hourly Weather Hongkong

    Today, 20 January, Sunday

    Time Temperature Precipitation Wind Pressure Humidity
    00:00 +20°C° 0 mm 3 mps 761 mmHg 81%
    01:00 +20°C° 0 mm 3 mps 761 mmHg 81%
    02:00 +20°C° 0 mm 2 mps 761 mmHg 84%
    03:00 +20°C° 0 mm 2 mps 761 mmHg 84%
    04:00 +20°C° 0 mm 2 mps 761 mmHg 84%
    05:00 +20°C° 0 mm 2 mps 761 mmHg 83%
    06:00 +20°C° 0 mm 2 mps 761 mmHg 82%
    07:00 +20°C° 0 mm 2 mps 761 mmHg 81%
    08:00 +21°C° 0 mm 1 mps 761 mmHg 79%
    09:00 +21°C° 0 mm 2 mps 761 mmHg 76%
    10:00 +23°C° 0 mm 2 mps 761 mmHg 72%
    11:00 +23°C° 0 mm 2 mps 762 mmHg 69%
    12:00 +25°C° 0 mm 2 mps 761 mmHg 63%
    13:00 +26°C° 0 mm 2 mps 761 mmHg 58%
    14:00 +25°C° 0 mm 0 mps 760 mmHg 55%
    15:00 +27°C° 0 mm 1 mps 760 mmHg 55%
    16:00 +26°C° 0 mm 1 mps 760 mmHg 56%
    17:00 +26°C° 0 mm 1 mps 760 mmHg 57%
    18:00 +25°C° 0 mm 2 mps 760 mmHg 60%
    19:00 +25°C° 0 mm 2 mps 761 mmHg 64%
    20:00 +24°C° 0 mm 3 mps 761 mmHg 68%
    21:00 +22°C° 0 mm 3 mps 761 mmHg 66%
    22:00 +22°C° 0 mm 4 mps 762 mmHg 64%
    23:00 +21°C° 0 mm 4 mps 762 mmHg 63%

    Tomorrow, 21 January, Monday

    Time Temperature Precipitation Wind Pressure Humidity
    00:00 +20°C° 0 mm 5 mps 762 mmHg 62%
    01:00 +19°C° 0 mm 5 mps 762 mmHg 60%
    02:00 +17°C° 0 mm 5 mps 763 mmHg 59%
    03:00 +17°C° 0 mm 5 mps 763 mmHg 60%
    04:00 +16°C° 0 mm 5 mps 763 mmHg 60%
    05:00 +15°C° 0 mm 5 mps 763 mmHg 61%
    06:00 +15°C° 0 mm 5 mps 763 mmHg 60%
    07:00 +15°C° 0 mm 5 mps 763 mmHg 59%
    08:00 +15°C° 0 mm 5 mps 764 mmHg 58%
    09:00 +16°C° 0 mm 5 mps 764 mmHg 54%
    10:00 +17°C° 0 mm 5 mps 764 mmHg 50%
    11:00 +19°C° 0 mm 4 mps 765 mmHg 45%
    12:00 +20°C° 0 mm 4 mps 764 mmHg 43%
    13:00 +21°C° 0 mm 4 mps 763 mmHg 41%
    14:00 +22°C° 0 mm 4 mps 763 mmHg 38%
    15:00 +22°C° 0 mm 3 mps 762 mmHg 38%
    16:00 +22°C° 0 mm 3 mps 762 mmHg 39%
    17:00 +22°C° 0 mm 3 mps 762 mmHg 39%
    18:00 +21°C° 0 mm 4 mps 762 mmHg 41%
    19:00 +21°C° 0 mm 4 mps 763 mmHg 43%
    20:00 +20°C° 0 mm 4 mps 763 mmHg 45%
    21:00 +19°C° 0 mm 4 mps 763 mmHg 45%
    22:00 +19°C° 0 mm 5 mps 763 mmHg 44%
    23:00 +17°C° 0 mm 5 mps 764 mmHg 44%

    Day after tomorrow, 22 January, Tuesday

    Time Temperature Precipitation Wind Pressure Humidity
    00:00 +16°C° 0 mm 5 mps 764 mmHg 45%
    01:00 +16°C° 0 mm 5 mps 764 mmHg 46%
    02:00 +15°C° 0 mm 5 mps 763 mmHg 47%
    03:00 +15°C° 0 mm 4 mps 763 mmHg 48%
    04:00 +15°C° 0 mm 4 mps 763 mmHg 48%
    05:00 +14°C° 0 mm 4 mps 763 mmHg 49%
    06:00 +14°C° 0 mm 4 mps 763 mmHg 48%
    07:00 +14°C° 0 mm 4 mps 764 mmHg 48%
    08:00 +14°C° 0 mm 4 mps 764 mmHg 48%
    09:00 +15°C° 0 mm 4 mps 765 mmHg 43%
    10:00 +18°C° 0 mm 4 mps 765 mmHg 38%
    11:00 +19°C° 0 mm 4 mps 765 mmHg 33%
    12:00 +20°C° 0 mm 4 mps 764 mmHg 31%
    13:00 +21°C° 0 mm 3 mps 763 mmHg 28%
    14:00 +22°C° 0 mm 3 mps 763 mmHg 26%
    15:00 +22°C° 0 mm 3 mps 762 mmHg 27%
    16:00 +22°C° 0 mm 3 mps 762 mmHg 27%
    17:00 +22°C° 0 mm 3 mps 762 mmHg 28%
    18:00 +21°C° 0 mm 3 mps 762 mmHg 30%
    19:00 +20°C° 0 mm 4 mps 762 mmHg 32%
    20:00 +19°C° 0 mm 4 mps 763 mmHg 34%
    21:00 +19°C° 0 mm 4 mps 763 mmHg 35%
    22:00 +18°C° 0 mm 4 mps 763 mmHg 35%
    23:00 +18°C° 0 mm 4 mps 763 mmHg 36%

    23 January, Wednesday

    Time Temperature Precipitation Wind Pressure Humidity
    00:00 +17°C° 0 mm 4 mps 763 mmHg 37%
    01:00 +17°C° 0 mm 4 mps 763 mmHg 38%
    02:00 +16°C° 0 mm 3 mps 763 mmHg 39%
    03:00 +15°C° 0 mm 4 mps 763 mmHg 40%
    04:00 +15°C° 0 mm 4 mps 762 mmHg 42%
    05:00 +14°C° 0 mm 4 mps 762 mmHg 43%
    06:00 +14°C° 0 mm 4 mps 763 mmHg 43%
    07:00 +14°C° 0 mm 4 mps 763 mmHg 42%
    08:00 +14°C° 0 mm 4 mps 764 mmHg 42%
    09:00 +17°C° 0 mm 4 mps 764 mmHg 37%
    10:00 +18°C° 0 mm 4 mps 764 mmHg 32%
    11:00 +20°C° 0 mm 3 mps 764 mmHg 28%
    12:00 +21°C° 0 mm 3 mps 764 mmHg 26%
    13:00 +22°C° 0 mm 3 mps 763 mmHg 23%
    14:00 +24°C° 0 mm 3 mps 762 mmHg 21%
    15:00 +22°C° 0 mm 3 mps 762 mmHg 23%
    16:00 +22°C° 0 mm 3 mps 761 mmHg 24%
    17:00 +22°C° 0 mm 3 mps 761 mmHg 26%
    18:00 +21°C° 0 mm 3 mps 762 mmHg 30%
    19:00 +20°C° 0 mm 3 mps 762 mmHg 35%
    20:00 +19°C° 0 mm 3 mps 762 mmHg 39%
    21:00 +19°C° 0 mm 4 mps 762 mmHg 44%
    22:00 +19°C° 0 mm 4 mps 763 mmHg 50%
    23:00 +17°C° 0 mm 5 mps 763 mmHg 55%

    24 January, Thursday

    Time Temperature Precipitation Wind Pressure Humidity
    00:00 +17°C° 0 mm 5 mps 763 mmHg 60%
    01:00 +17°C° 0 mm 5 mps 762 mmHg 64%
    02:00 +17°C° 0 mm 6 mps 762 mmHg 69%
    03:00 +17°C° 0 mm 6 mps 762 mmHg 69%
    04:00 +16°C° 0 mm 6 mps 762 mmHg 70%
    05:00 +16°C° 0 mm 7 mps 762 mmHg 70%
    06:00 +16°C° 0 mm 7 mps 762 mmHg 70%
    07:00 +16°C° 0 mm 7 mps 763 mmHg 69%
    08:00 +16°C° 0 mm 7 mps 764 mmHg 69%
    09:00 +17°C° 0 mm 7 mps 764 mmHg 63%
    10:00 +18°C° 0 mm 7 mps 764 mmHg 58%
    11:00 +20°C° 0 mm 7 mps 764 mmHg 52%
    12:00 +21°C° 0 mm 7 mps 763 mmHg 49%
    13:00 +21°C° 0 mm 7 mps 762 mmHg 47%
    14:00 +22°C° 0 mm 7 mps 762 mmHg 44%
    15:00 +22°C° 0 mm 6 mps 761 mmHg 46%
    16:00 +21°C° 0 mm 6 mps 761 mmHg 48%
    17:00 +21°C° 0 mm 6 mps 761 mmHg 50%
    18:00 +20°C° 0 mm 6 mps 761 mmHg 54%
    19:00 +19°C° 0 mm 6 mps 762 mmHg 59%
    20:00 +19°C° 0 mm 5 mps 762 mmHg 63%
    21:00 +17°C° 0 mm 5 mps 762 mmHg 65%
    22:00 +17°C° 0 mm 5 mps 762 mmHg 66%
    23:00 +17°C° 0 mm 5 mps 763 mmHg 68%

    25 January, Friday

    Time Temperature Precipitation Wind Pressure Humidity
    00:00 +17°C° 0 mm 5 mps 762 mmHg 68%
    01:00 +17°C° 0 mm 5 mps 762 mmHg 69%
    02:00 +17°C° 0 mm 5 mps 762 mmHg 70%
    03:00 +16°C° 0 mm 5 mps 762 mmHg 70%
    04:00 +16°C° 0 mm 5 mps 762 mmHg 70%
    05:00 +16°C° 0 mm 5 mps 762 mmHg 70%
    06:00 +17°C° 0 mm 4 mps 763 mmHg 68%
    07:00 +17°C° 0 mm 4 mps 763 mmHg 67%
    08:00 +17°C° 0 mm 4 mps 764 mmHg 65%
    09:00 +19°C° 0 mm 4 mps 764 mmHg 58%
    10:00 +20°C° 0 mm 4 mps 764 mmHg 51%
    11:00 +22°C° 0 mm 4 mps 764 mmHg 44%
    12:00 +23°C° 0 mm 4 mps 764 mmHg 41%
    13:00 +25°C° 0 mm 3 mps 763 mmHg 37%
    14:00 +26°C° 0 mm 3 mps 762 mmHg 34%
    15:00 +25°C° 0 mm 3 mps 762 mmHg 37%
    16:00 +25°C° 0 mm 3 mps 762 mmHg 40%
    17:00 +24°C° 0 mm 3 mps 762 mmHg 43%
    18:00 +22°C° 0 mm 3 mps 762 mmHg 49%
    19:00 +21°C° 0 mm 3 mps 763 mmHg 55%
    20:00 +20°C° 0 mm 3 mps 763 mmHg 62%
    21:00 +20°C° 0 mm 3 mps 763 mmHg 65%
    22:00 +20°C° 0 mm 3 mps 764 mmHg 68%
    23:00 +19°C° 0 mm 3 mps 764 mmHg 70%
    Show more